Arlington, TX

1:37 AM CDT on May 23, 2017 (GMT -0500)
Arlington Municipal

Weather History for KGKY - February, 2013

Change the Weather History Date:

Sunday, February 24, 2013

  Actual Average (KRBD) Record (KRBD)
Temperature  
Mean Temperature 50 °F -  
Max Temperature 69 °F 57 °F 82 °F (2011)
Min Temperature 30 °F 40 °F 21 °F (2003)
Degree Days  
Heating Degree Days 16    
Moisture  
Dew Point 37 °F    
Average Humidity 60    
Maximum Humidity 92    
Minimum Humidity 36    
Precipitation  
Precipitation 0.00 in - - ()
Sea Level Pressure  
Sea Level Pressure 29.80 in    
Wind  
Wind Speed 7 mph (SE)    
Max Wind Speed 21 mph    
Max Gust Speed 26 mph    
Visibility 10 miles    
Events      
Averages and records for this station are not official NWS values.
T = Trace of Precipitation, MM = Missing Value Source: NWS Daily Summary

Daily Weather History Graph

Daily Weather History Graph

Search for Another Location

Airport or City:

Trip Planner

Search our weather history database for the weather conditions in past years. The results will help you decide how hot, cold, wet, or windy it might be!

Date:

Astronomy

Feb. 24, 2013 Rise Set
Actual Time 7:01 AM CST 6:21 PM CST
Civil Twilight 6:36 AM CST 6:46 PM CST
Nautical Twilight 6:08 AM CST 7:15 PM CST
Astronomical Twilight 5:39 AM CST 7:43 PM CST
Moon 5:34 PM CST (2/24) 5:58 AM CST (2/24)
Length of Visible Light 12h 10m
Length of Day
11h 20m
Waxing Gibbous, 99% of the Moon is Illuminated
Feb 24
Waxing Gibbous
Feb 25
Full
Mar 4
Last Quarter
Mar 11
New
Mar 19
First Quarter

Hourly Weather History & Observations

Time (CST) Temp. Windchill Dew Point Humidity Pressure Visibility Wind Dir Wind Speed Gust Speed Precip Events Conditions
12:53 AM 37.9 °F - 30.0 °F 73% 29.92 in 10.0 mi Calm Calm - N/A   Clear
1:53 AM 34.0 °F - 28.9 °F 82% 29.91 in 10.0 mi Calm Calm - N/A   Clear
2:53 AM 37.9 °F 34.4 °F 28.9 °F 70% 29.91 in 10.0 mi SSE 4.6 mph - N/A   Clear
3:53 AM 34.0 °F - 28.9 °F 82% 29.90 in 10.0 mi Calm Calm - N/A   Clear
4:53 AM 32.0 °F - 28.9 °F 88% 29.89 in 10.0 mi Calm Calm - N/A   Clear
5:53 AM 30.0 °F - 28.0 °F 92% 29.91 in 10.0 mi Calm Calm - N/A   Clear
6:53 AM 34.0 °F - 28.9 °F 82% 29.90 in 10.0 mi Calm Calm - N/A   Clear
7:53 AM 39.0 °F 36.8 °F 33.1 °F 79% 29.91 in 10.0 mi SE 3.5 mph - N/A   Clear
8:53 AM 48.9 °F - 41.0 °F 74% 29.92 in 10.0 mi SE 12.7 mph - N/A   Clear
9:53 AM 54.0 °F - 43.0 °F 66% 29.91 in 10.0 mi SE 13.8 mph - N/A   Clear
10:53 AM 57.9 °F - 44.1 °F 60% 29.88 in 10.0 mi SE 13.8 mph - N/A   Clear
11:53 AM 62.1 °F - 43.0 °F 50% 29.86 in 10.0 mi SE 12.7 mph 21.9 mph N/A   Clear
12:53 PM 66.0 °F - 41.0 °F 40% 29.82 in 10.0 mi SE 13.8 mph 24.2 mph N/A   Clear
1:53 PM 66.9 °F - 41.0 °F 39% 29.76 in 10.0 mi SE 19.6 mph 24.2 mph N/A   Clear
2:53 PM 68.0 °F - 42.1 °F 39% 29.73 in 10.0 mi SE 15.0 mph 24.2 mph N/A   Clear
3:53 PM 69.1 °F - 42.1 °F 38% 29.71 in 10.0 mi SE 20.7 mph 25.3 mph N/A   Clear
4:53 PM 68.0 °F - 39.9 °F 36% 29.70 in 10.0 mi ESE 16.1 mph - N/A   Clear
5:53 PM 66.0 °F - 37.9 °F 36% 29.70 in 10.0 mi ESE 12.7 mph - N/A   Clear
6:53 PM 63.0 °F - 37.9 °F 40% 29.68 in 10.0 mi ESE 12.7 mph - N/A   Clear
7:53 PM 61.0 °F - 39.0 °F 44% 29.69 in 10.0 mi ESE 9.2 mph - N/A   Clear
8:53 PM 60.1 °F - 39.9 °F 47% 29.69 in 10.0 mi ESE 11.5 mph - N/A   Clear
9:53 PM 57.9 °F - 41.0 °F 53% 29.68 in 10.0 mi ESE 12.7 mph - N/A   Clear
10:53 PM 57.9 °F - 43.0 °F 58% 29.64 in 10.0 mi ESE 12.7 mph - N/A   Partly Cloudy
11:53 PM 57.9 °F - 45.0 °F 62% 29.60 in 10.0 mi SE 16.1 mph 26.5 mph N/A   Partly Cloudy